Date,TemperatureHighF,TemperatureAvgF,TemperatureLowF,DewpointHighF,DewpointAvgF,DewpointLowF,HumidityHigh,HumidityAvg,HumidityLow,PressureMaxIn,PressureMinIn,WindSpeedMaxMPH,WindSpeedAvgMPH,GustSpeedMaxMPH,PrecipitationSumIn
2014-1-1,48.7,38.0,29.8,36.9,29.4,21.4,86,71,54,30.40,30.10,16,1,16,0.00
2014-1-2,38.7,35.7,31.6,36.1,33.8,31.5,99,93,82,30.10,29.59,12,1,12,0.04
2014-1-3,32.0,21.7,16.9,31.8,13.2,7.0,99,71,51,30.48,29.60,24,4,27,0.00
2014-1-4,34.9,25.8,16.3,22.8,16.3,8.1,81,67,55,30.52,30.24,16,1,16,0.08
2014-1-5,41.0,37.3,31.8,41.0,34.3,22.8,100,90,70,30.25,29.69,11,1,11,0.09
2014-1-6,48.0,35.4,10.8,47.8,28.1,-3.5,100,76,49,30.08,29.47,38,8,38,0.14
2014-1-7,19.2,12.1,5.7,3.7,-2.3,-7.1,63,52,44,30.44,30.07,24,4,25,0.00
2014-1-8,29.8,22.3,12.0,22.3,9.0,1.2,74,56,42,30.60,30.44,10,1,10,0.00
2014-1-9,39.4,32.9,28.6,28.9,24.8,21.0,83,72,62,30.63,30.47,10,1,12,0.00
2014-1-10,39.4,36.2,32.7,39.4,34.7,27.3,100,95,77,30.52,30.11,5,0,7,0.58
2014-1-11,53.4,46.1,37.9,53.2,46.0,37.9,100,99,84,30.11,29.39,18,2,19,0.78
2014-1-12,53.4,47.5,41.5,48.0,37.6,33.6,83,69,58,30.09,29.52,23,5,26,0.00
2014-1-13,60.4,48.5,36.9,45.7,39.7,33.3,88,72,57,30.08,29.84,20,3,20,0.00
2014-1-14,53.8,47.9,40.3,48.9,46.6,40.3,100,96,68,29.89,29.68,18,2,18,0.37
2014-1-15,47.8,41.3,37.2,47.3,39.5,33.6,100,94,71,29.96,29.84,19,2,23,0.01
2014-1-16,39.7,36.0,32.9,34.2,27.3,23.0,93,71,55,30.01,29.86,9,2,17,0.00
2014-1-17,48.7,38.9,31.5,36.3,32.4,28.2,91,78,58,29.95,29.77,12,1,12,0.00
2014-1-18,38.8,30.1,24.3,35.2,20.8,14.2,91,69,54,29.98,29.76,28,7,30,0.00
2014-1-19,50.0,36.4,24.3,33.3,25.0,14.7,79,64,51,29.95,29.73,15,2,16,0.00
2014-1-20,56.8,45.5,39.0,36.1,32.4,29.3,73,61,44,29.86,29.62,23,3,24,0.00
2014-1-21,40.6,29.4,15.4,32.7,25.6,12.0,97,87,70,29.87,29.70,23,4,23,0.00
2014-1-22,18.3,13.6,8.4,12.0,3.5,0.5,86,64,53,30.09,29.86,23,7,24,0.00
2014-1-23,27.3,18.2,11.8,15.8,7.5,3.4,77,63,48,30.42,30.09,27,4,28,0.00
2014-1-24,24.3,17.5,10.6,6.8,4.0,1.0,65,55,43,30.53,30.08,21,4,22,0.00
2014-1-25,34.0,27.5,21.4,26.2,14.2,6.4,77,57,49,30.08,29.46,24,5,24,0.00
2014-1-26,34.3,28.8,21.2,20.7,14.4,9.1,82,55,45,29.91,29.63,28,2,28,0.00
2014-1-27,52.5,35.5,21.9,38.7,22.9,7.9,71,60,42,30.17,29.63,29,6,30,0.00
2014-1-28,21.7,15.9,12.0,10.0,2.0,-2.7,86,54,48,30.44,30.17,26,4,28,0.00
2014-1-29,25.5,18.2,12.2,11.1,5.5,-0.9,90,59,41,30.36,30.19,17,3,18,0.00
2014-1-30,34.0,25.3,18.3,16.0,9.5,3.6,70,51,41,30.46,30.17,12,2,13,0.00
2014-1-31,50.0,35.8,24.1,26.6,20.4,15.4,71,55,34,30.22,30.09,9,1,10,0.00
2014-2-1,53.1,42.2,32.5,36.0,27.9,20.3,75,58,41,30.27,29.97,14,1,14,0.00
2014-2-2,61.3,50.3,40.5,42.3,36.9,30.7,75,61,47,30.03,29.89,11,1,11,0.00
2014-2-3,49.8,39.0,33.4,43.5,37.6,30.7,100,95,75,30.32,29.95,22,4,23,1.47
2014-2-4,38.3,33.6,29.7,31.1,27.9,24.8,97,80,69,30.47,30.12,12,1,12,0.02
2014-2-5,43.0,35.2,31.5,39.2,33.5,24.8,100,94,69,30.13,29.67,34,3,35,0.01
2014-2-6,36.0,32.1,28.6,26.2,22.3,20.3,76,67,55,30.33,30.07,22,4,23,0.00
2014-2-7,43.7,35.6,28.9,28.9,25.2,21.2,78,66,55,30.33,30.22,11,1,11,0.00
2014-2-8,34.2,31.4,27.3,25.7,21.2,17.1,82,66,54,30.33,30.17,9,1,9,0.00
2014-2-9,34.3,31.7,26.2,32.7,26.4,21.2,96,81,70,30.19,29.97,14,1,15,0.00
2014-2-10,34.0,29.4,24.4,29.7,19.5,14.4,85,67,58,30.33,30.02,21,4,21,0.00
2014-2-11,32.9,26.1,21.0,17.6,14.5,12.9,72,62,51,30.46,30.32,13,2,14,0.00
2014-2-12,29.8,24.4,18.1,25.2,16.6,10.4,97,73,57,30.51,30.10,15,2,15,0.00
2014-2-13,37.2,33.5,25.3,37.2,33.3,24.6,100,100,97,30.10,29.28,26,7,26,0.55
2014-2-14,52.2,42.4,34.3,36.0,32.0,25.9,97,67,50,29.70,29.33,26,3,28,0.10
2014-2-15,41.9,35.5,30.4,34.5,30.5,19.2,98,83,63,29.93,29.58,30,6,30,0.10
2014-2-16,38.5,32.2,26.8,27.5,21.1,16.0,81,64,54,30.19,29.93,20,3,20,0.00
2014-2-17,36.0,30.3,24.1,25.2,18.7,15.4,82,62,45,30.43,30.19,17,3,18,0.00
2014-2-18,58.5,42.6,28.4,37.4,31.7,21.9,97,69,41,30.23,29.99,17,2,18,0.05
2014-2-19,63.1,50.4,41.4,54.9,39.4,30.0,100,67,41,30.12,29.67,24,4,29,0.11
2014-2-20,55.9,48.2,39.7,40.8,35.6,30.0,84,63,38,30.23,29.91,17,1,17,0.00
2014-2-21,68.7,50.7,43.5,64.0,47.5,40.1,99,89,78,29.95,29.62,23,2,25,0.04
2014-2-22,64.0,51.0,37.0,44.4,34.3,30.7,98,57,32,30.09,29.95,21,2,21,0.01
2014-2-23,63.7,52.4,45.1,40.6,36.4,33.3,80,55,39,30.00,29.83,20,3,20,0.00
2014-2-24,45.7,40.1,33.4,39.6,23.3,16.0,86,52,33,30.13,29.89,28,7,30,0.00
2014-2-25,37.2,32.9,29.8,31.6,24.1,17.2,95,71,50,30.12,29.97,14,1,15,0.10
2014-2-26,35.8,31.0,26.1,31.6,21.7,12.9,97,70,48,30.00,29.83,17,2,20,0.08
2014-2-27,39.7,29.9,19.8,23.7,15.2,6.3,75,56,37,30.13,29.66,30,6,30,0.00
2014-2-28,29.8,21.7,13.8,12.6,4.3,-1.3,61,47,33,30.42,30.13,19,2,26,0.00
2014-3-1,45.5,33.7,20.8,29.1,21.0,11.1,82,61,46,30.38,30.16,14,1,14,0.00
2014-3-2,52.9,42.1,36.7,41.0,35.3,27.5,99,78,58,30.16,29.94,13,1,13,0.23
2014-3-3,36.5,23.2,16.3,36.0,20.7,10.2,99,90,76,30.35,29.97,20,4,20,0.18
2014-3-4,32.0,23.4,15.1,18.9,11.6,7.9,76,61,45,30.42,30.22,10,1,10,0.11
2014-3-5,45.9,34.3,23.9,25.5,20.8,18.1,86,60,38,30.38,30.17,17,2,17,0.08
2014-3-6,35.1,30.5,25.0,26.4,21.0,15.6,81,68,56,30.56,30.35,13,4,18,0.00
2014-3-7,45.0,36.9,30.4,35.4,30.4,25.7,85,77,67,30.35,29.91,18,4,18,0.00
2014-3-8,65.1,49.7,32.9,45.0,37.3,28.4,85,64,47,29.96,29.85,13,2,14,0.00
2014-3-9,56.1,47.0,41.9,40.5,31.3,24.1,76,55,39,30.09,29.87,25,5,25,0.00
2014-3-10,60.6,48.3,39.6,40.3,33.7,23.9,75,58,42,29.99,29.64,18,2,19,0.00
2014-3-11,71.6,59.2,50.5,48.2,42.2,36.0,59,54,43,29.70,29.60,7,0,11,0.00
2014-3-12,66.7,54.4,34.5,60.8,45.2,24.3,95,72,57,29.61,29.03,34,6,52,0.05
2014-3-13,34.5,29.1,21.4,24.4,11.8,5.0,67,49,37,30.17,29.46,44,11,44,0.00
2014-3-14,58.8,43.0,27.9,32.5,23.1,12.7,64,46,35,30.23,29.86,23,4,24,0.00
2014-3-15,66.7,56.9,49.8,43.9,34.0,30.0,53,43,29,30.02,29.80,22,5,23,0.00
2014-3-16,52.3,41.7,29.5,32.7,30.1,25.7,98,65,45,30.16,30.01,21,3,21,0.00
2014-3-17,30.4,28.0,25.3,29.5,27.2,24.8,99,97,92,30.08,29.96,18,3,18,0.01
2014-3-18,42.1,36.2,29.1,33.1,28.9,24.3,92,75,63,30.22,30.05,17,3,18,0.18
2014-3-19,42.1,39.2,36.5,41.9,37.2,31.5,100,93,75,30.20,29.84,8,1,14,0.28
2014-3-20,58.6,49.8,41.4,47.7,37.2,30.0,100,67,35,29.99,29.80,27,6,27,0.00
2014-3-21,56.1,48.5,44.1,43.5,37.7,30.6,87,67,52,30.06,29.99,14,2,14,0.00
2014-3-22,70.9,55.2,42.8,46.0,40.4,34.9,89,62,28,30.00,29.80,15,3,17,0.00
2014-3-23,54.3,44.1,35.2,36.5,29.8,16.3,67,57,45,30.17,29.97,29,5,29,0.00
2014-3-24,40.5,32.7,24.4,22.8,15.6,12.4,65,49,38,30.31,30.13,24,4,25,0.00
2014-3-25,35.1,33.0,30.7,34.7,30.2,21.7,99,90,63,30.14,29.83,11,1,11,0.19
2014-3-26,36.1,32.1,28.8,31.5,20.5,13.8,97,64,41,30.31,29.87,32,9,32,0.00
2014-3-27,52.5,39.1,26.1,32.7,23.1,15.3,71,53,39,30.43,30.17,21,3,21,0.01
2014-3-28,66.9,55.8,44.8,57.9,48.6,32.5,98,77,60,30.18,29.97,28,5,28,0.05
2014-3-29,62.8,58.7,53.2,62.1,57.9,53.2,100,98,83,30.07,29.52,21,2,21,0.96
2014-3-30,53.2,43.1,35.1,53.2,42.3,34.9,100,97,80,29.78,29.46,28,10,32,1.02
2014-3-31,65.3,53.1,42.1,41.2,37.9,34.3,79,58,39,30.06,29.78,29,8,30,0.00
2014-4-1,66.7,55.5,44.8,45.9,39.8,33.8,77,56,43,30.15,29.94,9,1,12,0.00
2014-4-2,66.2,54.7,45.1,52.2,47.3,42.8,93,77,60,30.09,29.96,10,1,10,0.00
2014-4-3,67.1,59.9,54.3,55.9,50.9,45.5,88,73,55,30.09,29.91,14,1,15,0.00
2014-4-4,61.9,54.1,49.3,55.6,49.3,44.6,98,84,69,29.92,29.66,15,3,16,0.03
2014-4-5,56.3,51.8,45.9,51.1,41.1,33.3,100,69,48,30.13,29.66,30,7,31,0.01
2014-4-6,60.1,49.3,39.4,34.5,31.0,23.0,72,51,27,30.24,30.11,14,2,14,0.00
2014-4-7,52.5,47.4,41.0,52.5,44.2,32.5,100,89,56,30.16,29.60,24,2,27,0.39
2014-4-8,64.8,56.8,50.5,57.4,49.4,42.8,100,79,53,29.66,29.45,26,5,27,0.04
2014-4-9,65.7,57.5,49.3,45.0,40.6,35.2,70,55,37,30.03,29.65,23,4,23,0.00
2014-4-10,71.1,60.8,46.4,45.5,40.0,33.8,63,47,37,30.20,30.00,17,3,23,0.00
2014-4-11,81.3,68.3,61.2,57.9,49.8,44.1,83,53,34,30.04,29.86,24,4,24,0.00
2014-4-12,77.2,66.9,59.0,57.6,50.5,38.8,87,59,32,30.24,30.00,15,2,15,0.00
2014-4-13,84.2,69.9,55.0,63.3,59.0,53.2,96,71,49,30.12,29.94,21,3,21,0.00
2014-4-14,77.5,71.3,64.4,65.1,61.0,58.8,87,71,58,29.97,29.78,29,6,29,0.00
2014-4-15,69.3,56.4,36.0,68.9,54.9,29.7,100,95,73,30.01,29.51,28,5,28,1.72
2014-4-16,49.8,40.9,32.7,30.4,24.5,19.4,72,53,38,30.51,30.01,27,4,29,0.00
2014-4-17,54.7,46.0,37.8,39.6,35.4,28.4,84,67,55,30.63,30.51,18,3,18,0.00
2014-4-18,55.0,46.2,38.8,42.3,38.5,34.5,87,75,60,30.56,30.25,10,1,11,0.00
2014-4-19,69.6,57.0,45.1,47.5,42.1,33.3,92,62,32,30.28,30.18,15,1,18,0.00
2014-4-20,62.8,55.3,48.6,45.5,42.0,37.6,72,61,48,30.40,30.27,17,3,19,0.00
2014-4-21,70.7,56.3,42.4,47.8,40.4,33.1,74,57,37,30.27,29.86,12,1,12,0.00
2014-4-22,74.3,61.6,51.6,63.3,54.8,44.8,96,80,54,29.86,29.55,14,1,16,0.09
2014-4-23,61.2,54.3,49.5,55.0,42.1,37.4,81,64,57,29.96,29.62,31,9,31,0.00
2014-4-24,64.6,53.9,44.2,37.4,32.9,28.0,66,47,31,30.11,29.96,18,4,18,0.00
2014-4-25,68.4,57.1,50.4,54.3,45.5,32.7,100,68,43,30.00,29.68,24,2,25,0.41
2014-4-26,76.1,63.3,52.3,56.3,51.4,44.8,100,67,47,29.87,29.70,36,5,36,0.02
2014-4-27,67.5,58.5,49.6,51.6,42.2,38.1,66,55,41,30.07,29.85,15,3,18,0.00
2014-4-28,61.5,54.4,49.3,53.6,46.6,42.1,100,76,59,30.09,29.94,15,2,15,0.12
2014-4-29,50.2,49.0,47.7,50.2,48.9,46.6,100,100,95,30.17,30.03,22,4,22,1.00
2014-4-30,66.6,57.2,49.8,66.4,57.2,49.8,100,100,100,30.14,29.80,19,3,19,2.10
2014-5-1,79.2,68.4,59.5,66.9,61.3,49.3,100,80,57,29.82,29.65,19,2,19,0.14
2014-5-2,70.5,63.4,55.2,49.3,46.7,44.2,75,55,44,29.86,29.75,16,2,16,0.00
2014-5-3,74.8,65.3,56.5,53.6,48.7,44.6,75,56,41,29.86,29.70,18,2,18,0.00
2014-5-4,79.9,65.7,55.0,54.5,48.4,43.9,70,55,37,29.91,29.66,32,3,32,0.00
2014-5-5,64.8,56.5,48.4,51.6,42.7,36.3,99,62,44,30.03,29.85,17,3,17,0.23
2014-5-6,73.0,61.2,51.1,57.6,52.1,46.8,100,76,43,30.01,29.87,15,1,16,0.01
2014-5-7,65.1,59.4,53.8,58.8,52.8,45.5,97,80,56,30.24,30.01,15,2,19,0.14
2014-5-8,87.8,70.7,57.0,72.3,64.0,55.2,100,82,51,30.12,29.96,11,1,11,0.00
2014-5-9,77.9,67.9,60.6,70.2,65.0,60.3,100,91,76,30.09,29.91,12,2,12,0.00
2014-5-10,78.6,71.4,68.0,70.0,67.3,65.3,99,87,72,29.99,29.86,19,2,19,0.05
2014-5-11,82.2,71.5,61.0,65.5,59.2,54.1,97,68,42,30.12,29.92,13,2,14,0.01
2014-5-12,87.6,73.7,62.2,73.0,67.5,58.8,100,82,57,30.10,30.00,18,2,18,0.10
2014-5-13,91.2,77.4,67.5,76.6,70.8,64.0,100,82,58,30.15,30.01,14,2,14,0.00
2014-5-14,67.5,63.1,59.4,65.8,62.6,59.4,100,98,89,30.19,30.09,13,2,14,0.00
2014-5-15,81.9,72.4,65.7,74.1,69.7,65.7,100,92,74,30.11,29.87,21,3,21,0.45
2014-5-16,70.7,64.7,54.9,69.8,59.7,52.2,100,85,67,29.92,29.70,32,4,32,2.01
2014-5-17,67.8,60.5,53.6,52.3,47.9,44.8,84,64,48,30.14,29.91,18,2,18,0.00
2014-5-18,67.5,60.1,52.5,48.6,45.0,42.3,76,58,42,30.22,30.13,17,2,17,0.00
2014-5-19,72.7,63.1,52.2,48.0,45.0,41.5,71,53,38,30.27,30.13,14,2,15,0.00
2014-5-20,79.2,67.7,57.2,57.9,51.8,46.0,72,58,39,30.18,29.96,11,1,11,0.00
2014-5-21,79.2,69.0,61.9,68.9,63.5,57.9,100,84,63,29.98,29.85,8,1,10,0.10
2014-5-22,87.3,75.6,64.9,72.1,66.6,57.6,100,76,53,29.86,29.73,23,3,26,0.00
2014-5-23,78.3,68.8,59.5,59.0,55.2,50.0,79,62,48,30.00,29.85,23,5,24,0.00
2014-5-24,75.0,66.4,56.1,59.5,55.1,50.0,82,68,56,30.08,29.98,17,3,17,0.00
2014-5-25,82.0,71.5,59.0,60.8,57.0,54.5,87,62,42,30.14,30.05,14,1,14,0.00
2014-5-26,87.1,75.4,62.4,68.5,64.6,58.5,94,71,48,30.10,29.94,13,1,14,0.00
2014-5-27,90.0,76.9,67.6,74.7,69.6,65.8,100,80,55,29.94,29.79,26,2,26,0.73
2014-5-28,86.2,74.3,60.3,74.3,69.8,59.9,100,87,65,30.05,29.82,23,2,23,0.15
2014-5-29,60.3,57.6,56.5,60.3,57.6,56.5,100,100,98,30.16,30.04,16,2,18,0.23
2014-5-30,73.8,63.8,57.2,63.0,59.9,57.2,100,88,67,30.12,30.04,11,1,13,0.01
2014-5-31,79.9,70.0,61.3,61.0,56.5,51.8,91,65,42,30.24,30.07,18,2,18,0.00
2014-6-1,76.8,66.9,56.5,61.9,58.4,55.8,99,76,54,30.34,30.21,12,1,12,0.00
2014-6-2,81.0,69.3,56.8,66.6,60.3,53.4,90,74,59,30.26,30.03,16,2,16,0.00
2014-6-3,86.9,75.7,66.0,75.7,69.1,62.4,95,80,65,30.03,29.81,19,1,21,0.00
2014-6-4,88.0,77.8,67.8,72.0,68.6,63.3,100,76,49,29.84,29.65,19,1,19,0.38
2014-6-5,78.6,70.7,63.0,69.3,64.4,58.5,100,82,57,29.84,29.55,19,3,20,0.06
2014-6-6,79.0,70.1,60.6,61.3,57.7,51.6,84,65,53,29.96,29.82,17,2,18,0.00
2014-6-7,85.5,74.0,61.9,66.0,62.3,58.6,90,69,47,30.01,29.91,7,0,9,0.00
2014-6-8,84.0,74.5,64.2,71.6,67.2,62.4,97,79,62,29.95,29.79,15,2,16,0.12
2014-6-9,84.6,75.9,68.5,76.1,72.4,68.5,100,89,71,29.86,29.80,13,1,13,0.34
2014-6-10,85.6,78.1,73.0,77.5,75.2,73.0,100,92,72,29.90,29.82,10,1,11,0.19
2014-6-11,86.7,76.3,69.3,78.4,73.8,69.3,100,93,74,29.97,29.86,20,2,20,0.37
2014-6-12,78.6,72.8,69.1,76.1,72.3,69.1,100,98,90,29.94,29.80,15,2,20,0.10
2014-6-13,82.6,73.9,69.1,75.9,72.1,67.3,100,95,80,29.83,29.71,19,1,19,0.87
2014-6-14,76.3,70.3,65.8,67.6,61.5,57.4,95,74,58,30.08,29.82,21,4,21,0.00
2014-6-15,83.1,71.4,58.5,67.1,61.3,54.1,90,72,56,30.16,30.05,10,1,11,0.00
2014-6-16,90.7,79.4,66.0,75.9,71.3,65.3,99,78,59,30.11,30.00,12,1,12,0.00
2014-6-17,95.4,83.4,71.4,79.3,74.8,69.1,93,76,56,30.08,29.91,11,1,12,0.00
2014-6-18,94.3,86.1,77.7,80.2,76.7,72.1,88,74,62,29.99,29.90,16,2,16,0.00
2014-6-19,85.8,79.0,72.7,78.6,73.2,69.6,99,83,70,29.99,29.89,20,2,21,0.09
2014-6-20,84.4,75.4,67.8,70.5,64.3,56.3,100,71,45,30.02,29.89,12,1,12,0.00
2014-6-21,73.8,69.9,65.8,67.6,65.0,62.1,100,85,72,29.91,29.83,11,1,11,0.04
2014-6-22,82.2,72.7,65.8,70.3,66.8,64.6,100,83,59,29.98,29.85,12,1,13,0.08
2014-6-23,83.7,74.5,65.1,70.3,66.7,64.4,100,78,55,30.11,29.98,15,2,16,0.00
2014-6-24,85.5,76.1,66.6,75.6,70.2,64.8,95,83,70,30.12,29.96,15,2,16,0.00
2014-6-25,88.5,79.5,72.0,79.7,75.8,72.0,100,89,72,29.98,29.77,17,2,19,0.35
2014-6-26,86.7,79.3,71.8,74.8,71.9,69.1,100,80,59,29.94,29.81,17,3,19,0.01
2014-6-27,86.4,77.9,71.4,75.6,71.4,67.8,90,81,68,30.15,29.94,13,2,13,0.00
2014-6-28,85.1,75.9,66.4,70.2,66.5,63.1,92,74,56,30.24,30.15,13,1,13,0.00
2014-6-29,84.9,76.4,66.9,68.9,64.8,57.9,88,69,44,30.22,30.08,12,1,13,0.00
2014-6-30,87.1,78.1,69.3,75.7,71.0,64.0,93,79,68,30.09,29.89,14,2,14,0.00
2014-7-1,91.8,82.3,72.3,80.1,76.0,71.1,96,82,66,29.94,29.78,18,3,18,0.00
2014-7-2,95.9,84.6,74.8,82.9,77.9,73.9,99,81,62,29.91,29.79,24,2,24,0.11
2014-7-3,89.6,77.4,72.0,81.9,75.2,71.6,100,93,74,29.94,29.84,22,1,25,0.20
2014-7-4,79.2,73.8,68.5,73.8,64.8,56.8,100,76,52,30.14,29.92,27,5,27,0.02
2014-7-5,83.5,73.1,61.9,61.3,57.5,54.3,78,59,44,30.24,30.13,13,2,13,0.00
2014-7-6,87.1,76.0,64.0,69.4,64.6,58.1,91,69,50,30.13,29.91,17,2,17,0.00
2014-7-7,91.2,81.9,71.4,74.5,70.9,66.4,85,70,55,29.92,29.77,20,3,20,0.00
2014-7-8,93.7,81.8,69.1,78.1,72.8,68.2,100,76,57,29.86,29.68,42,4,43,0.71
2014-7-9,87.1,75.1,69.6,77.5,72.8,69.1,100,94,69,29.94,29.79,15,1,17,0.08
2014-7-10,85.8,75.1,68.7,77.4,71.8,64.2,100,90,70,30.08,29.93,22,1,22,0.18
2014-7-11,85.6,76.2,66.4,74.8,70.9,66.4,100,85,66,30.17,30.07,11,1,11,0.00
2014-7-12,88.2,79.3,70.3,77.9,74.2,70.3,100,85,68,30.18,30.06,15,2,18,0.00
2014-7-13,91.6,81.2,73.0,79.9,75.8,72.3,100,85,66,30.08,29.86,15,3,15,0.03
2014-7-14,91.4,79.5,73.8,81.5,76.8,73.8,100,92,71,29.91,29.75,21,1,21,0.07
2014-7-15,89.4,77.2,70.7,80.2,75.2,70.7,100,94,70,29.80,29.67,18,1,18,1.64
2014-7-16,80.1,73.7,68.5,71.4,65.0,60.8,100,76,58,29.91,29.74,15,2,15,0.00
2014-7-17,81.3,73.6,66.9,64.9,62.0,59.0,77,67,55,30.09,29.90,18,2,18,0.00
2014-7-18,84.6,75.2,65.7,66.6,62.7,59.7,81,66,49,30.20,30.09,9,0,10,0.00
2014-7-19,82.2,75.0,69.8,68.4,65.6,61.3,88,73,54,30.17,30.09,13,1,13,0.00
2014-7-20,81.7,75.0,70.5,72.9,70.6,67.3,96,87,70,30.09,30.03,9,0,9,0.00
2014-7-21,84.4,76.4,70.9,74.8,71.5,68.7,97,85,72,30.15,30.07,12,1,12,0.00
2014-7-22,86.7,78.2,71.1,76.8,73.8,71.1,100,87,70,30.16,30.03,15,2,15,0.00
2014-7-23,92.5,81.9,72.1,80.6,76.1,72.1,100,84,63,30.03,29.76,18,2,22,0.00
2014-7-24,79.3,75.2,70.0,75.2,68.8,62.8,99,81,70,29.91,29.80,11,1,11,0.01
2014-7-25,84.9,73.6,63.5,66.7,62.5,57.4,86,70,50,30.04,29.91,10,1,15,0.00
2014-7-26,88.9,77.5,69.3,75.2,69.8,66.0,96,79,51,29.97,29.84,10,1,11,0.00
2014-7-27,84.6,77.3,70.2,77.4,74.4,69.6,99,91,76,29.85,29.59,16,2,16,0.08
2014-7-28,83.5,77.1,70.2,76.6,69.0,63.7,100,78,57,29.79,29.55,17,5,29,0.02
2014-7-29,75.2,68.6,63.1,63.9,58.1,54.1,86,70,53,29.99,29.78,18,4,19,0.00
2014-7-30,80.1,70.1,59.0,63.1,59.1,54.5,87,69,52,30.05,29.98,12,1,13,0.00
2014-7-31,85.6,75.4,64.9,70.7,66.8,61.3,97,76,56,30.09,30.02,13,1,13,0.00
2014-8-1,78.3,73.8,66.0,72.7,70.2,64.8,97,89,77,30.17,30.09,14,1,14,0.03
2014-8-2,80.1,71.7,64.4,72.9,68.7,64.2,100,91,76,30.14,30.03,15,1,15,0.10
2014-8-3,83.8,75.2,68.5,74.7,71.5,68.2,100,89,70,30.05,29.96,14,1,16,0.41
2014-8-4,87.3,75.8,66.9,73.8,70.0,66.9,100,84,55,30.08,30.00,12,1,12,0.01
2014-8-5,90.3,79.4,69.3,75.0,70.9,65.3,100,78,48,30.04,29.90,26,1,26,0.00
2014-8-6,82.8,74.7,66.4,72.1,69.4,66.4,100,85,67,29.94,29.86,13,1,26,0.09
2014-8-7,83.3,75.7,68.7,72.0,66.2,58.6,98,75,46,30.01,29.89,14,1,14,0.00
2014-8-8,82.2,74.8,66.0,67.3,63.9,60.3,86,70,56,30.10,30.01,11,1,11,0.00
2014-8-9,86.2,75.1,67.6,73.6,69.0,64.4,93,82,62,30.09,30.03,13,1,14,0.00
2014-8-10,86.4,77.1,68.2,72.0,69.5,66.9,98,79,59,30.11,30.03,11,1,11,0.00
2014-8-11,82.8,73.7,65.8,71.4,68.1,65.1,99,84,65,30.09,29.97,14,2,14,0.05
2014-8-12,75.2,72.0,68.4,74.5,71.8,68.4,100,99,94,29.98,29.72,17,1,17,1.63
2014-8-13,81.7,75.4,68.5,73.9,68.1,61.0,100,79,63,29.88,29.70,23,4,24,0.00
2014-8-14,82.9,72.6,61.5,66.6,61.0,56.8,90,68,51,29.93,29.81,17,2,17,0.00
2014-8-15,80.1,70.9,62.2,62.1,56.9,52.7,73,62,47,30.00,29.90,16,2,16,0.00
2014-8-16,82.9,74.0,64.0,64.8,60.0,55.9,80,63,47,30.00,29.90,10,1,11,0.00
2014-8-17,85.3,77.1,69.6,75.6,70.0,63.7,89,79,68,29.91,29.83,15,2,15,0.00
2014-8-18,82.8,76.3,70.2,71.8,69.0,65.5,89,78,68,29.91,29.76,12,1,12,0.00
2014-8-19,83.1,75.9,71.2,74.7,71.9,70.0,96,88,73,29.88,29.75,14,1,14,0.00
2014-8-20,86.7,74.4,67.8,73.8,69.7,66.6,99,87,57,29.98,29.87,15,1,15,0.30
2014-8-21,88.5,75.5,67.5,77.7,72.5,67.3,100,92,63,30.02,29.94,9,0,9,0.11
2014-8-22,82.2,75.6,72.0,76.5,73.2,69.8,100,92,79,29.97,29.91,11,1,11,0.02
2014-8-23,73.2,70.6,68.2,72.7,69.7,67.5,100,97,90,30.06,29.94,12,2,13,0.18
2014-8-24,79.2,71.8,66.0,68.4,65.8,62.2,99,82,62,30.12,30.04,12,1,12,0.00
2014-8-25,82.9,72.6,63.9,67.1,65.1,62.8,100,79,56,30.15,30.09,14,1,14,0.00
2014-8-26,87.1,75.7,65.1,71.1,67.3,62.4,92,76,59,30.14,30.04,10,1,11,0.00
2014-8-27,89.6,77.9,65.3,73.9,70.4,65.3,100,80,56,30.05,29.87,10,1,10,0.00
2014-8-28,82.9,77.6,69.8,74.5,68.1,59.9,90,74,57,30.05,29.84,16,3,17,0.00
2014-8-29,81.5,71.2,60.8,65.7,60.8,56.1,85,70,55,30.17,30.04,13,1,14,0.00
2014-8-30,84.0,74.8,66.7,76.3,70.7,64.9,97,88,76,30.19,30.06,13,1,13,0.00
2014-8-31,91.6,79.7,73.8,80.1,75.9,73.8,100,90,65,30.10,29.93,25,2,26,0.48
2014-9-1,91.9,80.7,73.6,80.6,76.8,73.6,100,89,67,30.00,29.90,14,1,15,0.02
2014-9-2,93.0,84.7,75.4,79.2,76.8,73.2,98,79,61,29.94,29.80,15,1,19,0.00
2014-9-3,86.0,79.1,73.0,77.5,73.2,66.9,97,83,64,30.09,29.86,7,0,10,0.00
2014-9-4,90.0,79.2,69.8,77.5,73.4,66.2,97,83,63,30.13,30.04,12,1,14,0.00
2014-9-5,90.9,81.2,72.5,80.1,76.6,72.5,100,87,68,30.12,29.98,12,1,13,0.00
2014-9-6,92.7,81.1,72.3,80.2,76.5,71.8,100,87,64,29.99,29.81,18,2,27,0.08
2014-9-7,80.4,73.0,66.9,73.2,63.8,57.6,100,74,48,30.13,29.93,14,2,14,0.00
2014-9-8,73.8,70.4,68.4,69.3,64.4,60.1,91,81,70,30.20,30.12,18,2,19,0.00
2014-9-9,76.5,71.2,66.9,71.2,67.9,64.8,96,89,82,30.16,30.05,13,2,17,0.00
2014-9-10,81.0,72.9,68.5,72.3,68.4,66.7,95,86,72,30.10,29.96,11,1,14,0.00
2014-9-11,89.1,77.9,69.1,77.9,72.9,68.2,100,85,67,29.97,29.82,15,3,15,0.00
2014-9-12,76.8,70.3,64.2,69.6,62.6,59.7,88,77,65,30.11,29.94,15,2,15,0.00
2014-9-13,69.6,66.0,62.2,67.8,62.3,59.2,100,88,80,30.18,30.06,16,1,19,0.22
2014-9-14,71.4,62.6,54.1,59.5,54.8,51.3,92,77,59,30.29,30.17,12,1,14,0.00
2014-9-15,75.4,65.2,55.4,63.0,59.0,54.9,98,82,60,30.22,30.01,12,1,12,0.00
2014-9-16,77.4,68.7,63.1,65.1,61.4,57.0,100,79,55,30.00,29.94,17,2,23,0.00
2014-9-17,76.6,66.2,55.9,61.9,57.7,54.1,94,75,56,30.03,29.92,8,0,8,0.00
2014-9-18,77.5,67.8,59.7,66.6,61.5,55.4,98,81,58,30.07,29.92,12,1,13,0.00
2014-9-19,76.3,66.6,59.5,64.2,61.2,56.1,100,84,62,30.27,30.07,13,2,14,0.00
2014-9-20,80.8,70.3,61.5,68.4,64.9,61.5,100,84,63,30.25,30.00,13,1,17,0.00
2014-9-21,85.3,72.9,61.9,71.8,66.7,61.9,100,83,60,30.01,29.61,20,1,20,0.00
2014-9-22,75.6,66.8,58.5,64.8,54.7,50.0,77,66,54,30.20,29.71,24,5,24,0.00
2014-9-23,72.0,61.1,50.7,56.3,50.6,46.0,85,69,51,30.35,30.19,12,1,13,0.00
2014-9-24,70.0,62.7,55.9,63.5,58.8,53.6,96,87,78,30.42,30.31,20,2,25,0.04
2014-9-25,66.0,62.9,59.9,65.5,62.5,59.7,100,99,93,30.31,30.18,20,2,20,0.54
2014-9-26,76.6,67.2,60.1,63.0,61.2,59.5,100,83,58,30.22,30.14,10,1,12,0.00
2014-9-27,83.3,69.8,59.7,64.8,61.2,57.4,92,76,49,30.22,30.13,8,0,9,0.00
2014-9-28,81.1,70.4,59.7,67.5,63.0,58.8,97,79,56,30.16,30.01,8,0,10,0.00
2014-9-29,71.8,67.2,63.0,68.0,65.5,62.6,100,95,87,30.01,29.89,7,0,8,0.00
2014-9-30,77.0,68.3,64.6,68.7,66.1,64.4,100,93,75,29.91,29.82,9,1,10,0.00
2014-10-1,73.9,67.3,63.3,67.1,65.0,62.8,100,93,77,30.03,29.90,8,1,9,0.05
2014-10-2,75.2,66.2,60.3,66.6,63.3,60.3,100,91,74,30.11,30.02,9,1,11,0.00
2014-10-3,70.2,66.1,61.0,67.3,64.5,60.1,100,95,89,30.08,29.68,14,2,15,0.07
2014-10-4,68.4,62.4,48.7,68.2,54.5,37.6,100,77,52,29.80,29.56,26,4,32,0.08
2014-10-5,63.3,52.7,42.4,46.6,42.4,37.0,89,69,51,29.94,29.79,14,1,15,0.00
2014-10-6,74.8,61.0,46.8,56.5,51.2,44.8,97,72,51,30.01,29.89,26,3,26,0.00
2014-10-7,73.2,64.4,59.5,63.5,59.1,54.1,100,84,66,30.03,29.85,18,3,20,0.17
2014-10-8,77.4,67.2,58.3,61.9,58.2,50.9,100,75,52,29.99,29.81,22,3,25,0.01
2014-10-9,72.5,64.3,55.0,57.6,52.2,47.1,79,65,50,30.10,29.98,13,1,15,0.00
2014-10-10,63.3,59.6,54.7,57.6,54.7,52.2,100,85,72,30.09,30.02,10,1,11,0.11
2014-10-11,58.5,54.6,52.5,57.4,54.4,52.5,100,99,96,30.14,29.95,12,1,13,0.41
2014-10-12,63.7,57.0,50.4,55.4,52.2,47.8,100,85,67,30.27,30.13,11,1,11,0.00
2014-10-13,66.0,62.2,58.6,66.0,61.6,55.4,100,98,87,30.26,30.15,5,0,7,0.13
2014-10-14,80.1,72.1,65.8,73.2,69.8,65.7,100,93,79,30.16,29.91,19,3,20,0.00
2014-10-15,77.4,70.1,59.9,74.1,69.2,59.7,100,97,90,29.92,29.72,18,2,20,1.63
2014-10-16,66.4,60.5,58.1,62.4,59.8,57.9,100,98,85,29.73,29.68,11,1,11,0.04
2014-10-17,73.2,63.2,54.3,61.0,57.9,54.3,100,84,60,29.79,29.64,16,2,16,0.01
2014-10-18,68.5,60.2,55.4,57.9,55.8,51.4,98,87,55,29.69,29.59,23,3,26,0.00
2014-10-19,59.5,53.5,48.7,43.5,40.5,37.6,76,62,50,30.09,29.94,27,5,28,0.00
2014-10-20,67.5,55.4,43.5,54.3,48.0,39.6,98,77,61,30.11,29.90,21,2,21,0.01
2014-10-21,71.1,58.3,51.4,59.2,54.1,50.2,99,87,58,29.90,29.76,16,1,16,0.56
2014-10-22,55.9,53.7,52.5,53.8,52.5,47.8,100,96,81,29.92,29.82,23,5,26,0.78
2014-10-23,64.6,58.2,52.2,54.0,49.7,46.9,84,74,61,29.89,29.81,28,7,28,0.00
2014-10-24,68.4,59.8,53.8,51.4,47.7,43.0,81,65,47,29.95,29.86,21,6,23,0.00
2014-10-25,72.5,61.2,49.6,54.1,48.7,44.2,83,64,47,29.94,29.67,16,2,16,0.00
2014-10-26,69.6,62.3,54.5,51.3,43.0,36.9,80,51,35,29.90,29.65,26,4,26,0.00
2014-10-27,72.0,59.0,46.2,47.8,42.2,35.8,72,55,37,30.07,29.90,10,1,10,0.00
2014-10-28,81.0,67.4,56.7,63.7,56.5,46.8,81,69,55,30.01,29.89,14,2,15,0.00
2014-10-29,69.4,60.8,53.4,63.5,57.4,50.9,100,89,70,29.96,29.86,19,2,20,0.04
2014-10-30,59.4,53.7,49.6,50.9,45.2,41.9,95,73,56,30.04,29.95,18,3,18,0.00
2014-10-31,56.3,50.1,44.8,45.1,42.2,40.5,91,75,58,30.00,29.79,8,0,10,0.00
2014-11-1,51.6,49.3,46.8,46.4,43.1,37.6,88,79,68,29.87,29.72,25,4,25,0.00
2014-11-2,51.1,46.0,42.6,37.6,32.8,27.9,75,61,45,30.20,29.86,34,8,36,0.00
2014-11-3,63.9,52.2,42.6,37.4,32.0,27.3,62,47,26,30.30,30.19,19,4,20,0.00
2014-11-4,69.4,58.1,48.0,48.9,43.0,34.7,73,58,46,30.20,30.04,10,1,10,0.00
2014-11-5,67.6,60.0,53.8,55.9,49.0,42.6,93,68,52,30.16,30.04,8,0,8,0.01
2014-11-6,66.9,56.7,53.1,61.0,54.4,46.0,100,93,75,30.09,29.62,20,2,23,0.63
2014-11-7,54.3,49.7,40.3,46.6,39.5,30.4,86,69,53,30.04,29.68,32,6,32,0.00
2014-11-8,53.8,44.2,33.6,40.6,34.1,28.8,84,68,53,30.07,29.89,13,2,16,0.00
2014-11-9,60.1,50.7,43.0,45.3,41.9,38.7,87,73,57,30.01,29.88,14,1,15,0.00
2014-11-10,65.8,52.7,42.6,50.5,45.3,40.8,98,77,53,30.14,30.01,13,1,16,0.00
2014-11-11,71.8,58.1,44.2,64.6,54.8,43.7,100,89,71,30.06,29.85,13,1,14,0.00
2014-11-12,64.4,57.5,43.3,63.0,50.0,34.5,100,78,50,30.10,29.82,22,4,22,0.00
2014-11-13,46.0,41.9,37.6,37.4,34.3,32.4,97,75,63,30.14,30.02,10,2,14,0.03
2014-11-14,41.4,36.9,32.2,37.0,24.9,22.5,94,62,50,30.27,30.04,16,6,24,0.00
2014-11-15,42.4,35.3,31.3,28.4,24.7,22.6,72,65,52,30.41,30.27,21,4,21,0.00
2014-11-16,46.4,41.4,34.5,41.4,33.4,25.7,92,74,55,30.35,30.00,11,1,11,0.02
2014-11-17,48.9,44.3,40.3,48.9,42.0,30.2,100,92,68,30.00,29.51,26,3,26,0.70
2014-11-18,40.3,29.7,24.6,30.4,14.1,9.3,68,52,41,30.25,29.75,31,7,31,0.70
2014-11-19,38.1,30.3,21.0,22.5,16.1,10.4,70,56,47,30.34,30.02,20,3,22,0.00
2014-11-20,54.7,42.2,34.3,34.3,26.2,18.0,63,53,45,30.08,29.86,23,5,23,0.00
2014-11-21,37.0,33.2,28.8,20.1,17.1,14.9,67,51,42,30.53,30.08,26,5,28,0.00
2014-11-22,50.4,38.1,25.2,28.8,24.1,18.0,84,59,40,30.53,30.22,18,2,20,0.00
2014-11-23,57.0,48.7,39.7,55.2,36.8,26.4,100,65,48,30.22,29.74,16,2,16,0.16
2014-11-24,72.9,66.4,55.6,64.6,62.0,55.4,100,87,66,29.75,29.57,25,6,25,0.15
2014-11-25,66.9,55.9,49.6,63.5,45.7,40.3,92,69,56,30.12,29.73,17,2,17,0.00
2014-11-26,50.5,40.3,34.3,44.4,38.5,33.8,99,94,71,30.12,29.85,19,3,19,1.10
2014-11-27,46.8,39.6,36.0,39.6,35.4,31.1,98,86,61,30.15,29.97,18,3,18,0.00
2014-11-28,39.7,35.6,31.8,30.9,26.5,23.9,79,69,59,30.29,30.15,19,4,20,0.00
2014-11-29,47.7,40.6,31.6,36.9,31.3,24.3,87,70,57,30.31,30.13,14,2,14,0.00
2014-11-30,66.6,53.0,40.3,52.0,43.5,34.7,82,71,58,30.13,30.01,15,3,16,0.00
2014-12-1,72.0,57.5,44.2,61.3,50.7,37.2,98,79,65,30.43,30.09,26,3,26,0.37
2014-12-2,44.4,37.9,35.2,38.5,36.6,34.5,100,95,75,30.55,30.27,14,2,15,0.62
2014-12-3,52.2,45.0,37.8,51.3,42.5,33.3,100,92,60,30.28,30.00,20,4,23,0.06
2014-12-4,45.7,41.9,36.3,36.5,33.1,30.7,83,71,63,30.46,30.28,11,1,12,0.01
2014-12-5,42.4,41.5,40.5,41.7,38.0,34.9,98,87,78,30.51,30.30,7,0,8,0.02
2014-12-6,50.7,45.9,42.3,50.7,45.2,41.2,100,97,92,30.30,29.99,20,2,21,0.47
2014-12-7,48.6,41.7,36.1,41.4,30.6,23.7,95,66,44,30.53,30.21,25,5,26,0.47
2014-12-8,37.0,35.1,33.3,33.1,27.3,21.4,97,74,58,30.56,30.19,19,4,19,0.00
2014-12-9,45.3,38.7,32.9,41.2,37.5,32.4,100,95,81,30.19,29.83,24,6,24,0.27
2014-12-10,48.4,43.2,37.8,39.2,35.9,29.5,85,75,67,29.84,29.77,34,11,34,0.00
2014-12-11,41.5,39.0,34.9,29.7,25.2,17.4,72,59,38,29.99,29.81,27,6,27,0.00
2014-12-12,44.2,40.1,36.0,32.2,27.8,18.1,73,62,40,30.09,29.98,19,5,25,0.00
2014-12-13,47.7,39.4,31.6,37.0,32.0,27.3,89,75,65,30.11,29.96,13,2,17,0.00
2014-12-14,53.4,45.6,34.9,43.9,39.0,31.1,87,78,69,30.00,29.91,24,4,24,0.00
2014-12-15,58.8,49.2,43.3,48.2,43.8,40.3,93,82,68,30.08,29.99,9,1,10,0.00
2014-12-16,46.8,43.9,39.6,46.8,43.4,39.0,100,98,93,30.03,29.83,7,1,8,0.40
2014-12-17,54.0,45.8,38.7,45.3,39.1,30.0,100,79,60,30.03,29.87,22,5,22,0.01
2014-12-18,39.6,37.3,34.9,30.0,28.0,25.3,76,69,64,30.16,30.03,32,6,32,0.00
2014-12-19,40.3,36.4,33.3,30.4,28.6,26.8,77,73,67,30.23,30.07,20,5,20,0.00
2014-12-20,38.1,34.2,30.9,28.8,26.8,24.8,79,74,67,30.31,30.21,9,1,9,0.00
2014-12-21,43.3,37.1,32.7,32.4,29.8,27.5,86,75,64,30.34,30.24,9,1,10,0.00
2014-12-22,37.6,34.8,32.2,37.6,32.7,28.6,100,92,82,30.30,30.04,12,2,12,0.26
2014-12-23,47.1,42.6,36.9,47.1,42.6,36.7,100,100,100,30.04,29.99,12,1,13,0.04
2014-12-24,55.9,49.4,45.5,55.9,49.4,45.5,100,100,100,29.99,29.52,13,1,13,0.77
2014-12-25,59.9,51.0,45.1,59.9,43.2,36.0,100,76,58,30.19,29.52,27,6,27,0.11
2014-12-26,53.8,44.6,35.8,40.6,36.9,32.5,89,75,60,30.32,30.17,14,1,17,0.00
2014-12-27,59.4,47.1,36.9,45.9,39.4,34.3,96,77,49,30.27,30.03,7,0,7,0.00
2014-12-28,59.0,51.9,45.3,50.5,46.2,41.7,95,81,66,30.08,29.88,11,2,11,0.09
2014-12-29,45.1,42.6,41.5,43.7,35.6,30.7,97,77,65,30.23,30.07,10,1,12,0.07
2014-12-30,42.1,37.7,31.8,30.7,25.8,20.8,69,62,50,30.40,30.22,12,2,13,0.00
2014-12-31,36.9,32.5,29.3,21.9,19.4,16.9,70,59,44,30.43,30.22,14,2,22,0.00
2015-1-1,45.0,35.9,26.8,30.2,23.5,17.4,75,61,46,30.22,30.03,17,2,17,0.00
2015-1-2,46.8,41.3,36.0,31.3,29.0,25.7,73,62,52,30.40,30.06,8,0,8,0.00